Lexington Weather

Lexington, Massachusetts, USA

59°F
10/23/2020 5:55pm 
  • Lexington Conditions: Overcast
  • Temperature: 59.2°F / 15.1°CColder 2.3°F than last hour.
  • Dew Point: 53.4°FDecreased 1.8°Fsince last hour.
  • Relative Humidity: 81%Increased 1.0% since last hour.
  • Wind: Wind from SSE SSE 1 mph, 10-min avg: 1 mph, gust: 4 mph
  • Barometer: 30.08 in Steady
  • Visibility: 10 miles
  • Rain Today: 0.00 in
  •   

Regional Weather Roundup
for Boston / Norton, MA

        
000
ASUS41 KBOX 180305
RWRBOX

REGIONAL WEATHER ROUNDUP
NATIONAL WEATHER SERVICE BOSTON/NORTON MA
1100 PM EDT SAT OCT 17 2020

NOTE:  "FAIR" INDICATES FEW OR NO CLOUDS BELOW 12,000 FEET WITH NO 
SIGNIFICANT WEATHER AND/OR OBSTRUCTIONS TO VISIBILITY.

MAZALL-180400-
EASTERN MASSACHUSETTS
  
CITY           SKY/WX    TMP DP  RH WIND       PRES   REMARKS
BOSTON         CLEAR     49  35  58 SW3       30.43R                  
BEVERLY        CLEAR     37  34  89 CALM      30.41R                  
LAWRENCE       CLEAR     41  35  79 CALM      30.44R                  
BEDFORD        CLEAR     35  33  92 CALM      30.42R                  
BLUE HILL        N/A     48  29  47 SW8       30.41R                  
NORWOOD        CLEAR     37  34  87 CALM      30.43R FOG              
MARSHFIELD     CLEAR     39  37  93 W3        30.43R                  
PLYMOUTH       CLEAR     38  35  89 CALM      30.43R                  
TAUNTON        PTCLDY    35  32  88 CALM      30.43R FOG              
NEW BEDFORD    CLEAR     36  35  96 CALM      30.43R                  
$$

MAZALL-180400-
CAPE COD AND THE ISLANDS
  
CITY           SKY/WX    TMP DP  RH WIND       PRES   REMARKS
FALMOUTH       CLEAR     36  34  93 CALM      30.44R                  
HYANNIS        CLEAR     38  35  89 CALM      30.42R                  
CHATHAM        CLEAR     41  37  86 N3        30.44R                  
PROVINCETOWN   CLEAR     39  35  86 CALM      30.44R                  
NANTUCKET      CLEAR    N/A N/A N/A E5        30.44R                  
MARTHAS VNYRD  CLEAR     32  29  88 CALM      30.44R                  
$$
 
MAZALL-180400-
CENTRAL AND WESTERN MASSACHUSETTS
  
CITY           SKY/WX    TMP DP  RH WIND       PRES   REMARKS
WORCESTER      CLEAR     46  29  51 W7        30.42R                  
FITCHBURG      CLEAR     37  34  89 CALM      30.43R                  
ORANGE         CLEAR     35  34  96 CALM      30.44R FOG              
SPRINGFIELD    PTCLDY    35  34  97 CALM      30.42R                  
WESTFIELD      CLEAR     35  34  96 CALM      30.42R                  
NORTH ADAMS    CLEAR     35  32  88 CALM      30.42R                  
PITTSFIELD     CLEAR     35  31  85 CALM      30.40R                  
$$
 
RIZALL-180400-
RHODE ISLAND
  
CITY           SKY/WX    TMP DP  RH WIND       PRES   REMARKS
PROVIDENCE     CLEAR     42  37  82 SW5       30.44R                  
NEWPORT        CLEAR     39  36  89 CALM      30.43R                  
BLOCK ISLAND   CLEAR     47  33  58 NW3       30.44R                  
SMITHFIELD     CLEAR     38  34  85 CALM        N/A                   
WESTERLY       CLEAR     38  35  89 N3        30.43R                  
$$
 
CTZALL-180400-
CONNECTICUT
  
CITY           SKY/WX    TMP DP  RH WIND       PRES   REMARKS
BRADLEY INTL   CLEAR     38  34  85 W5        30.42R                  
HARTFORD       CLEAR     42  38  85 CALM      30.43R                  
BRIDGEPORT     CLEAR     46  39  76 N5        30.42R                  
DANBURY        CLEAR     37  35  92 CALM      30.43R                  
GROTON         CLEAR     39  36  89 N3        30.43R                  
NEW HAVEN      CLEAR     41  37  86 CALM      30.42R                  
CHESTER        NOT AVBL                                               
MERIDEN        CLEAR     37  33  85 CALM      30.43R                  
WILLIMANTIC    CLEAR     37  34  89 CALM      30.45R                  
OXFORD         CLEAR     38  33  82 CALM      30.42R                  
$$

MEZ002-015-021-024-NHZ003-005-008-011-012-014-VTZ005-008-180400-
NORTHERN NEW ENGLAND
  
CITY           SKY/WX    TMP DP  RH WIND       PRES   REMARKS
PORTLAND ME    CLEAR     38  34  85 CALM      30.40R                  
BANGOR ME      CLEAR     36  33  89 W3        30.34R                  
CONCORD NH     CLEAR     32  30  92 CALM      30.41R                  
MANCHESTER NH  CLEAR     41  34  76 CALM      30.40R                  
NASHUA NH      CLEAR     36  36 100 CALM      30.43R                  
PORTSMOUTH NH  CLEAR     39  34  84 CALM      30.40                   
JAFFREY NH     CLEAR     33  31  92 CALM      30.41R                  
KEENE NH       CLEAR     32  32 100 CALM      30.43R                  
BURLINGTON VT  CLEAR     39  34  82 CALM      30.35R                  
MT. WASHINGTON NOT AVBL                                               
$$

NYZ052-076-180400-
EASTERN NEW YORK
  
CITY           SKY/WX    TMP DP  RH WIND       PRES   REMARKS
ALBANY         CLEAR     37  33  85 S5        30.40R                  
NEW YORK CITY  PTCLDY    56  31  38 CALM      30.41R                  
$$
 
ANZALL-180400-
MARINE OBSERVATIONS
  
STATION/POSITION TIME  TEMP    WIND        PRES    VSBY  WAVE
                       AIR SEA DIR/SP/G                  HT/PER
                 (UTC) (F)     (DEG/KT/KT) (MB)    (MI)  (FT/S)
BOSTON BUOY      0250   55 57  200/  6/  6 1029.1R         1/ 5
BUZZARDS BAY     0200           30/  3/  4 1030.9R
NANTUCKET SOUND  0250      62  360/  6/  8   N/A           0
MASS BAY-STELLWA 0204   56 58  280/  4/  6 1028.9R  1 7/8  1/ 5
ISLE OF SHOALS   0200   53     240/  7/  7 1028.6R
S OF BLOCK IS    0226      63                N/A           2/ 4
$$

......................KEY.........................
  SKY/WX - SKY CONDITION/PRESENT WEATHER
  TMP    - TEMPERATURE IN FAHRENHEIT
  DWPT   - DEWPOINT IN FAHRENHEIT
  RH     - RELATIVE HUMIDITY IN PERCENT
  WIND   - DIRECTION AND SPEED IN MPH
  PRES   - MEAN SEA LEVEL PRESSURE IN INCHES OF HG
  WCI    - WIND CHILL INDEX
  VSB    - VISIBILITY IN MILES
  HX     - HEAT INDEX
  TC     - TEMPERATURE IN CELSIUS
  VRB    - VARIABLE WIND DIRECTION
  N/A    - NOT AVAILABLE
  
      

Other recent Regional Weather Roundups

Fri Oct 23, 5:05pm

Fri Oct 23, 4:04pm

Fri Oct 23, 3:04pm

Fri Oct 23, 2:05pm

Fri Oct 23, 1:04pm

Fri Oct 23, 12:04pm

Fri Oct 23, 11:04am

Fri Oct 23, 10:04am

Fri Oct 23, 9:04am

Fri Oct 23, 8:04am

Fri Oct 23, 7:04am

Fri Oct 23, 6:04am

Fri Oct 23, 5:04am

Fri Oct 23, 4:04am

Fri Oct 23, 3:04am

Fri Oct 23, 2:04am

Fri Oct 23, 1:04am

Fri Oct 23, 12:04am

Thu Oct 22, 11:04pm

Thu Oct 22, 10:04pm

Thu Oct 22, 9:05pm

Thu Oct 22, 8:04pm

Thu Oct 22, 7:05pm

Thu Oct 22, 6:04pm

Thu Oct 22, 5:04pm

Thu Oct 22, 4:05pm

Thu Oct 22, 3:04pm

Thu Oct 22, 2:05pm

Thu Oct 22, 1:04pm

Thu Oct 22, 12:04pm

Thu Oct 22, 11:04am

Thu Oct 22, 10:05am

Thu Oct 22, 9:04am

Thu Oct 22, 8:05am

Thu Oct 22, 7:04am

Thu Oct 22, 6:04am

Thu Oct 22, 5:04am

Thu Oct 22, 4:04am

Thu Oct 22, 3:04am

Thu Oct 22, 2:04am

Thu Oct 22, 1:04am

Thu Oct 22, 12:04am

Wed Oct 21, 11:05pm

Wed Oct 21, 10:04pm

Wed Oct 21, 9:04pm

Wed Oct 21, 8:04pm

Wed Oct 21, 7:04pm

Wed Oct 21, 6:04pm

Wed Oct 21, 5:05pm

Wed Oct 21, 4:04pm

Wed Oct 21, 3:04pm

Wed Oct 21, 2:05pm

Wed Oct 21, 1:04pm

Wed Oct 21, 12:04pm

Wed Oct 21, 11:04am

Wed Oct 21, 10:04am

Wed Oct 21, 9:04am

Wed Oct 21, 8:04am

Wed Oct 21, 7:04am

Wed Oct 21, 6:04am

Wed Oct 21, 5:04am

Wed Oct 21, 4:04am

Wed Oct 21, 3:04am

Wed Oct 21, 2:04am

Wed Oct 21, 1:04am

Wed Oct 21, 12:04am

Tue Oct 20, 11:05pm

Tue Oct 20, 10:04pm

Tue Oct 20, 9:04pm

Tue Oct 20, 8:05pm

Tue Oct 20, 7:04pm

Tue Oct 20, 6:04pm

Tue Oct 20, 5:05pm

Tue Oct 20, 4:04pm

Tue Oct 20, 3:05pm

Tue Oct 20, 2:07pm

Tue Oct 20, 1:04pm

Tue Oct 20, 12:04pm

Tue Oct 20, 11:04am

Tue Oct 20, 10:05am

Tue Oct 20, 9:04am

Tue Oct 20, 8:04am

Tue Oct 20, 7:04am

Tue Oct 20, 6:04am

Tue Oct 20, 5:04am

Tue Oct 20, 4:04am

Tue Oct 20, 3:04am

Tue Oct 20, 2:04am

Tue Oct 20, 1:04am

Tue Oct 20, 12:04am

Mon Oct 19, 11:04pm

Mon Oct 19, 10:04pm

Mon Oct 19, 9:04pm

Mon Oct 19, 8:04pm

Mon Oct 19, 7:04pm

Mon Oct 19, 6:04pm

Mon Oct 19, 5:04pm

Mon Oct 19, 4:04pm

Mon Oct 19, 3:04pm

Mon Oct 19, 2:04pm

Mon Oct 19, 1:05pm

Mon Oct 19, 12:04pm

Mon Oct 19, 11:04am

Mon Oct 19, 10:04am

Mon Oct 19, 9:04am

Mon Oct 19, 8:04am

Mon Oct 19, 7:04am

Mon Oct 19, 6:04am

Mon Oct 19, 5:04am

Mon Oct 19, 4:04am

Mon Oct 19, 3:04am

Mon Oct 19, 2:04am

Mon Oct 19, 1:04am

Mon Oct 19, 12:05am

Sun Oct 18, 11:04pm

Sun Oct 18, 10:04pm

Sun Oct 18, 9:04pm

Sun Oct 18, 8:04pm

Sun Oct 18, 7:05pm

Sun Oct 18, 6:04pm

Sun Oct 18, 5:05pm

Sun Oct 18, 4:05pm

Sun Oct 18, 3:04pm

Sun Oct 18, 2:05pm

Sun Oct 18, 1:04pm

Sun Oct 18, 12:04pm

Sun Oct 18, 11:04am

Sun Oct 18, 10:04am

Sun Oct 18, 9:04am

Sun Oct 18, 8:04am

Sun Oct 18, 7:04am

Sun Oct 18, 6:04am

Sun Oct 18, 5:04am

Sun Oct 18, 4:04am

Sun Oct 18, 3:04am

Sun Oct 18, 2:04am

Sun Oct 18, 1:04am

Sun Oct 18, 12:04am

Sat Oct 17, 10:04pm

Sat Oct 17, 9:04pm

Sat Oct 17, 8:04pm

Sat Oct 17, 7:04pm

Sat Oct 17, 6:04pm

Sat Oct 17, 5:05pm

Sat Oct 17, 4:04pm

Sat Oct 17, 3:04pm

Sat Oct 17, 2:05pm

Sat Oct 17, 1:05pm

Sat Oct 17, 12:04pm

Sat Oct 17, 11:05am

Sat Oct 17, 10:04am

Sat Oct 17, 9:04am

Sat Oct 17, 8:04am

Sat Oct 17, 7:04am

Sat Oct 17, 6:04am

Sat Oct 17, 5:04am

Sat Oct 17, 4:04am

Sat Oct 17, 3:04am

Sat Oct 17, 2:04am

Sat Oct 17, 1:05am

Sat Oct 17, 12:04am

Fri Oct 16, 11:05pm

Fri Oct 16, 10:04pm

Fri Oct 16, 9:05pm

Fri Oct 16, 8:04pm

Fri Oct 16, 7:05pm

Fri Oct 16, 6:04pm

Meta data:

ID: 4830c533-e448-4715-acb6-f42a0c950364
Link: https://api.weather.gov/products/4830c533-e448-4715-acb6-f42a0c950364